Weather History for Windsor, ON

Change the Weather History Date:

Sunday, November 27, 2011

  Actual Average Record
Temperature  
Mean Temperature 46 °F -  
Max Temperature 54 °F 36 °F 59 °F (2006)
Min Temperature 39 °F 23 °F 21 °F (1996)
Degree Days  
Heating Degree Days 18    
Moisture  
Dew Point 48 °F    
Average Humidity 89    
Maximum Humidity 100    
Minimum Humidity 63    
Precipitation  
Precipitation 0.31 in 0.11 in - ()
Sea Level Pressure  
Sea Level Pressure 29.85 in    
Wind  
Wind Speed 12 mph ()    
Max Wind Speed 20 mph    
Max Gust Speed 24 mph    
Visibility 6.8 miles    
Events Rain    
Averages and records for this station are not official NWS values.
T = Trace of Precipitation, MM = Missing Value Source: Averaged Metar Reports

Daily Weather History Graph

Daily Weather History Graph

Search for Another Location

Airport:

Trip Planner

Search our weather history database for the weather conditions in past years. The results will help you decide how hot, cold, wet, or windy it might be!

Date:

Astronomy

Nov. 27, 2011 Rise Set
Actual Time 7:36 AM EST 5:02 PM EST
Civil Twilight 7:05 AM EST 5:33 PM EST
Nautical Twilight 6:30 AM EST 6:07 PM EST
Astronomical Twilight 5:57 AM EST 6:41 PM EST
Moon 10:00 AM EST (11/27) 7:39 PM EST (11/27)
Length of Visible Light 10h 27m
Length of Day
9h 25m
Waxing Crescent, 8% of the Moon is Illuminated
Nov 27
Waxing Crescent
Dec 2
First Quarter
Dec 10
Full
Dec 17
Last Quarter
Dec 24
New

Hourly Weather History & Observations

Time (EST) Temp. Windchill Dew Point Humidity Pressure Visibility Wind Dir Wind Speed Gust Speed Precip Events Conditions
12:00 AM 57.2 °F - 46.4 °F 67% 29.88 in 15.0 mi South 15.0 mph 21.9 mph N/A   Overcast
12:30 AM - - - N/A% - 15.0 mi SSW 13.8 mph - N/A Rain Light Rain Showers
1:00 AM 56 °F - 47 °F 63% 29.87 in 15 mi SSW 10.4 mph - - Rain Light Rain Showers
1:00 AM 57.2 °F - 46.4 °F 67% 29.87 in 15.0 mi SSW 12.7 mph - N/A Rain Light Rain Showers
2:00 AM 55.4 °F - 46.4 °F 72% 29.85 in 7.0 mi SSW 15.0 mph - N/A Rain Light Rain Showers
3:00 AM 53.6 °F - 48.2 °F 82% 29.83 in 5.0 mi SSW 10.4 mph - N/A Rain Light Rain
4:00 AM 51.8 °F - 50.0 °F 94% 29.81 in 5.0 mi South 15.0 mph - N/A Rain Light Rain
5:00 AM 53.6 °F - 51.8 °F 94% 29.79 in 6.0 mi South 17.3 mph - N/A Rain Light Rain
6:00 AM 53.6 °F - 50.0 °F 88% 29.79 in 6.0 mi SSW 16.1 mph 24.2 mph N/A Rain Light Rain
7:00 AM 53 °F - 51 °F 92% 29.79 in 6 mi SSW 16.1 mph - - Rain Light Rain
7:00 AM 53.6 °F - 51.8 °F 94% 29.79 in 6.0 mi SSW 17.3 mph - N/A Rain Light Rain
7:16 AM - - - N/A% - 5.0 mi SSW 13.8 mph - N/A Rain Light Rain
7:26 AM - - - N/A% - 5.0 mi SSW 13.8 mph 19.6 mph N/A Rain Light Rain
7:43 AM - - - N/A% - 5.0 mi SSW 13.8 mph 19.6 mph N/A Rain Light Rain
8:00 AM 53.6 °F - 51.8 °F 94% 29.79 in 5.0 mi SSW 15.0 mph - N/A Rain Light Rain
9:00 AM 53.6 °F - 53.6 °F 100% 29.80 in 5.0 mi SSW 13.8 mph 19.6 mph N/A Rain Light Rain
9:29 AM - - - N/A% - 4.0 mi SSW 15.0 mph 20.7 mph N/A Rain Light Rain
9:54 AM - - - N/A% - 4.0 mi SSW 17.3 mph - N/A Rain Light Rain
10:00 AM 53.6 °F - 53.6 °F 100% 29.80 in 4.0 mi SSW 17.3 mph - N/A Rain Light Rain
11:00 AM 53.6 °F - 53.6 °F 100% 29.81 in 4.0 mi SSW 16.1 mph - N/A Rain Light Rain
12:00 PM 53.6 °F - 51.8 °F 94% 29.78 in 4.0 mi SSW 15.0 mph - N/A Rain Light Rain
12:11 PM - - - N/A% - 2.0 mi SSW 15.0 mph - N/A Rain Light Rain
12:27 PM - - - N/A% - 3.0 mi SSW 13.8 mph - N/A Rain Light Rain
12:54 PM - - - N/A% - 2.0 mi SSW 13.8 mph - N/A Rain Light Rain
1:00 PM 54 °F - 53 °F 95% 29.76 in 1 mi SSW 12.7 mph - - Rain Light Rain
1:00 PM 53.6 °F - 53.6 °F 100% 29.76 in 1.0 mi SSW 11.5 mph 17.3 mph N/A Rain Light Rain
1:17 PM - - - N/A% - 0.8 mi WSW 12.7 mph - N/A Rain Light Rain
1:27 PM - - - N/A% - 4.0 mi SW 11.5 mph 17.3 mph N/A Rain Light Rain
2:00 PM 53.6 °F - 53.6 °F 100% 29.77 in 2.0 mi SW 5.8 mph - N/A Rain Light Rain
2:23 PM - - - N/A% - 6.0 mi SW 3.5 mph - N/A Rain Light Rain
2:47 PM - - - N/A% - 6.0 mi West 3.5 mph - N/A Rain Light Rain
3:00 PM 53.6 °F - 53.6 °F 100% 29.79 in 6.0 mi Calm Calm - N/A Rain Light Rain
3:29 PM - - - N/A% - 6.0 mi North 9.2 mph - N/A Rain Light Rain
4:00 PM 50.0 °F - 48.2 °F 94% 29.83 in 8.0 mi North 8.1 mph - N/A Rain Light Rain
4:39 PM - - - N/A% - 7.0 mi North 12.7 mph - N/A Rain Light Rain
5:00 PM 46.4 °F 39.0 °F 44.6 °F 93% 29.87 in 9.0 mi NNW 19.6 mph - N/A Rain Light Rain
6:00 PM 44.6 °F 37.8 °F 41.0 °F 87% 29.89 in 7.0 mi North 15.0 mph 20.7 mph N/A Rain Light Rain
7:00 PM 44 °F - 41 °F 87% 29.93 in 7 mi NNW 16.1 mph - - Rain Light Rain
7:00 PM 42.8 °F 35.1 °F 41.0 °F 93% 29.93 in 7.0 mi NNW 16.1 mph - N/A Rain Light Rain
8:00 PM 42.8 °F 38.0 °F 39.2 °F 87% 29.97 in 7.0 mi North 8.1 mph - N/A Rain Light Rain
9:00 PM 41.0 °F 33.9 °F 37.4 °F 87% 29.99 in 10.0 mi North 12.7 mph - N/A Rain Light Rain
9:49 PM - - - N/A% - 10.0 mi North 11.5 mph - N/A Rain Light Rain
10:00 PM 39.2 °F 33.0 °F 37.4 °F 93% 30.01 in 10.0 mi North 9.2 mph - N/A Rain Light Rain
10:37 PM - - - N/A% - 12.0 mi North 6.9 mph - N/A Rain Light Rain
11:00 PM 39.2 °F 32.0 °F 35.6 °F 87% 30.03 in 12.0 mi NNW 11.5 mph - N/A Rain Light Rain
11:25 PM - - - N/A% - 15.0 mi North 11.5 mph - N/A   Overcast
11:36 PM - - - N/A% - 15.0 mi North 12.7 mph - N/A Rain Light Rain Showers